Retour au catalogue

ARIANE 44L R/B

ActifHEO
NORAD 26901·ROCKET BODY·🇫🇷 France

Lancé Aug 30, 2001 depuis Guiana Space Centre

Loading…

Prochains Passages (prochaines 24 heures)

TLE

FraisSource: Space-Track

Époque: Sep 14, 2026, 10:12 UTC

1 26901U 01039B   26257.42558134  .00003629  00000-0  12972-2 0  9998
2 26901   7.6656 287.2500 6389102 334.3057   4.4793  3.45243976246741

Suivez ARIANE 44L R/B en temps réel avec AllMySat

Download on the App Store